KTXEAGLE7 Weather Reports


time (UTC)temp
F
wind
direction
speed
knots
gust
knots
rain 1hr
in
rain 24hr
in
rain mn
in
humidity
%
barometer
mb
20260905143055 84 138 0.0 3.5 0.00 0.00 0.00 91 1014.9
20260905141608 82 99 0.0 2.6 0.00 0.00 0.00 95 1015.0
20260905140058 81 84 0.9 2.6 0.00 0.00 0.00 98 1014.9
20260905134557 80 97 0.9 3.5 0.00 0.00 0.00 100 1014.8
20260905133052 78 51 1.7 3.5 0.00 0.00 0.00 100 1014.6
20260905131552 77 59 0.9 2.6 0.00 0.00 0.00 100 1014.6
20260905130035 76 74 0.9 3.5 0.00 0.00 0.00 100 1014.4
20260905124534 75 55 0.9 2.6 0.00 0.00 0.00 100 1014.3
20260905123033 75 57 1.7 3.5 0.00 0.00 0.00 100 1014.1
20260905121532 75 42 1.7 3.5 0.00 0.00 0.00 99 1014.1
20260905120030 75 53 1.7 4.3 0.00 0.00 0.00 99 1013.9
20260905114545 75 21 1.7 3.5 0.00 0.01 0.00 99 1013.8
20260905113028 75 32 0.0 0.0 0.00 0.01 0.00 100 1013.6
20260905111527 75 32 0.0 0.0 0.00 0.01 0.00 99 1013.4
20260905110027 75 32 0.0 0.0 0.00 0.01 0.00 99 1013.3
20260905104532 75 32 0.0 2.6 0.00 0.01 0.00 99 1013.2
20260905103032 75 32 1.7 3.5 0.00 0.01 0.00 99 1013.1
20260905101525 75 41 0.0 0.0 0.00 0.01 0.00 99 1013.2
20260905100024 75 41 0.0 1.7 0.00 0.01 0.00 99 1013.1
20260905094522 76 36 1.7 3.5 0.00 0.01 0.00 98 1013.2
20260905093025 76 15 0.0 0.0 0.00 0.01 0.00 99 1013.1
20260905091520 76 15 0.0 0.0 0.00 0.01 0.00 98 1013.3
20260905090019 77 15 0.0 0.0 0.00 0.01 0.00 98 1013.3
20260905084519 77 14 0.0 0.0 0.00 0.01 0.00 98 1013.2
20260905083017 77 46 0.0 0.0 0.00 0.01 0.00 98 1013.4
20260905081517 77 105 0.0 0.0 0.00 0.01 0.00 98 1013.2
20260905080021 77 105 0.0 0.0 0.00 0.01 0.00 98 1013.0
20260905074517 77 105 0.0 0.0 0.00 0.01 0.00 98 1013.4
20260905073012 77 105 0.0 0.0 0.00 0.01 0.00 97 1013.3
20260905071510 77 105 0.0 0.0 0.00 0.01 0.00 98 1013.7
20260905070008 77 105 0.0 0.0 0.00 0.01 0.00 97 1013.6
20260905064508 77 116 0.0 0.0 0.00 0.01 0.00 97 1013.6
20260905063007 77 116 0.0 0.0 0.00 0.01 0.00 97 1013.7
20260905061505 77 116 0.0 1.7 0.00 0.01 0.00 97 1013.8
20260905060009 77 64 0.0 0.9 0.00 0.01 0.00 96 1013.9
20260905054502 78 118 0.0 0.9 0.00 0.01 0.00 96 1013.7
20260905053002 77 118 0.0 0.0 0.00 0.01 0.00 96 1013.8
20260905051611 78 138 0.0 0.0 0.00 0.01 0.00 96 1013.8
20260905050106 78 138 0.0 0.0 0.00 0.01 0.00 96 1013.9
20260905044600 78 138 0.9 2.6 0.00 0.01 0.01 95 1014.0
20260905043057 78 138 0.0 0.9 0.00 0.01 0.01 95 1014.0
20260905041556 78 138 1.7 3.5 0.00 0.01 0.01 95 1014.2
20260905040057 78 138 2.6 3.5 0.00 0.01 0.01 95 1014.2
20260905034608 79 132 0.9 1.7 0.00 0.01 0.01 94 1014.2
20260905033105 79 130 1.7 4.3 0.00 0.01 0.01 93 1014.3
20260905031608 79 144 1.7 3.5 0.00 0.01 0.01 92 1014.2
20260905030053 80 138 3.5 6.1 0.00 0.01 0.01 91 1014.2
20260905024553 80 135 3.5 6.1 0.00 0.01 0.01 91 1014.1
20260905023124 80 126 1.7 5.2 0.00 0.01 0.01 90 1013.9
20260905021552 80 118 1.7 3.5 0.00 0.01 0.01 90 1013.8
20260905020051 81 103 2.6 3.5 0.00 0.01 0.01 89 1013.7
20260905014554 81 132 3.5 7.0 0.00 0.01 0.01 87 1013.3
20260905013048 82 109 3.5 7.0 0.00 0.01 0.01 86 1013.1
20260905011554 83 107 2.6 5.2 0.00 0.01 0.01 87 1012.8
20260905010046 84 105 0.9 1.7 0.00 0.01 0.01 83 1012.7
20260905004544 86 105 0.0 1.7 0.00 0.01 0.01 81 1012.6
20260905003044 86 105 0.0 0.9 0.00 0.01 0.01 79 1012.5
20260905001545 87 105 0.0 1.7 0.00 0.01 0.01 79 1012.6
20260905000053 87 105 1.7 5.2 0.00 0.01 0.01 77 1012.5
20260904234542 87 119 3.5 6.1 0.00 0.01 0.01 78 1012.4
20260904233045 86 103 1.7 3.5 0.00 0.01 0.01 79 1012.3
20260904231539 84 193 0.0 3.5 0.00 0.01 0.01 82 1012.5
20260904230039 84 235 0.0 0.9 0.00 0.01 0.01 83 1012.4
20260904224538 84 202 0.9 3.5 0.00 0.01 0.01 83 1012.7
20260904223037 84 199 1.7 4.3 0.00 0.01 0.01 84 1012.9
20260904221536 85 195 3.5 6.1 0.00 0.01 0.01 81 1012.9
20260904214533 86 154 3.5 7.8 0.00 0.01 0.01 82 1013.1
20260904213036 86 102 5.2 8.7 0.00 0.01 0.01 81 1013.2
20260904211536 88 109 6.1 9.6 0.00 0.01 0.01 80 1013.2
20260904210132 87 89 3.5 6.1 0.00 0.01 0.01 78 1013.2
20260904204535 86 84 5.2 8.7 0.00 0.01 0.01 75 1013.4
20260904203041 85 84 2.6 7.0 0.00 0.01 0.01 83 1013.6
20260904201530 84 98 3.5 7.0 0.00 0.01 0.01 86 1013.5
20260904200036 83 98 3.5 6.1 0.00 0.01 0.01 86 1014.0
20260904194546 83 124 1.7 5.2 0.00 0.04 0.01 86 1014.2
20260904193029 83 111 2.6 6.1 0.00 0.04 0.01 80 1014.4
20260904191538 82 153 3.5 9.6 0.00 0.04 0.01 80 1014.6
20260904190029 83 150 4.3 10.4 0.00 0.04 0.01 81 1014.6
20260904184527 86 143 7.0 10.4 0.00 0.04 0.01 80 1014.6
20260904183027 87 82 7.8 11.3 0.00 0.04 0.01 80 1014.6
20260904181526 88 104 7.8 12.2 0.00 0.04 0.01 78 1014.9
20260904180025 88 84 5.2 8.7 0.00 0.04 0.01 78 1015.1
20260904174554 88 70 5.2 7.8 0.00 0.04 0.01 79 1015.0
20260904173025 87 134 3.5 7.8 0.00 0.04 0.01 76 1015.3
20260904171523 87 169 5.2 8.7 0.00 0.04 0.01 78 1015.2
20260904170023 87 108 2.6 7.8 0.00 0.04 0.01 81 1015.3
20260904164519 86 87 5.2 8.7 0.00 0.04 0.01 83 1015.4
20260904163017 85 148 4.3 7.0 0.00 0.04 0.01 87 1015.4
20260904161515 85 100 2.6 6.1 0.00 0.04 0.01 86 1015.4
20260904160012 84 140 0.9 3.5 0.00 0.04 0.01 87 1015.3
20260904154509 84 171 1.7 4.3 0.00 0.04 0.01 88 1015.1
20260904153124 84 116 0.0 6.1 0.00 0.04 0.01 89 1014.9
20260904151504 83 132 3.5 7.0 0.00 0.04 0.01 91 1015.0
20260904150005 83 140 3.5 7.0 0.00 0.04 0.01 92 1015.0
20260904144559 82 107 2.6 3.5 0.00 0.04 0.01 94 1015.0